Salem, OR

9:23 PM PST on December 03, 2016 (GMT -0800)
McNary

Weather History for KSLE - May, 2013

Change the Weather History Date:

Sunday, May 26, 2013

  Actual Average Record
Temperature  
Mean Temperature 59 °F 58 °F  
Max Temperature 64 °F 70 °F 91 °F (2005)
Min Temperature 53 °F 47 °F 34 °F (1930)
Degree Days  
Heating Degree Days 6 7  
Month to date heating degree days 172 245  
Since 1 July heating degree days 4161 4488  
Cooling Degree Days 0 0  
Month to date cooling degree days 10 0  
Year to date cooling degree days 10 0  
Growing Degree Days 8 (Base 50)    
Moisture  
Dew Point 51 °F    
Average Humidity 77    
Maximum Humidity 93    
Minimum Humidity 60    
Precipitation  
Precipitation 0.04 in 0.07 in 1.32 in (1895)
Month to date precipitation 1.90 1.84  
Year to date precipitation 9.55 19.16  
Snow  
Snow 0.00 in - - ()
Month to date snowfall 0.0  
Snow Depth 0.00 in    
Sea Level Pressure  
Sea Level Pressure 30.00 in    
Wind  
Wind Speed 9 mph (SSW)    
Max Wind Speed 18 mph    
Max Gust Speed 24 mph    
Visibility 10 miles    
Events Rain    
T = Trace of Precipitation, MM = Missing Value Source: NWS Daily Summary

Daily Weather History Graph

Daily Weather History Graph

Search for Another Location

Airport or City:

Trip Planner

Search our weather history database for the weather conditions in past years. The results will help you decide how hot, cold, wet, or windy it might be!

Date:

Astronomy

May. 26, 2013 Rise Set
Actual Time 5:32 AM PDT 8:46 PM PDT
Civil Twilight 4:56 AM PDT 9:21 PM PDT
Nautical Twilight 4:10 AM PDT 10:08 PM PDT
Astronomical Twilight 3:14 AM PDT 11:05 PM PDT
Moon 10:37 PM PDT (5/26) 7:08 AM PDT (5/26)
Length of Visible Light 16h 24m
Length of Day
15h 13m
Waning Gibbous, 96% of the Moon is Illuminated
May 26
Waning Gibbous
May 31
Last Quarter
Jun 8
New
Jun 16
First Quarter
Jun 23
Full

Hourly Weather History & Observations

Time (PDT) Temp. Dew Point Humidity Pressure Visibility Wind Dir Wind Speed Gust Speed Precip Events Conditions
12:56 AM 53.1 °F 52.0 °F 96% 29.97 in 10.0 mi SSE 5.8 mph - 0.07 in Rain Light Rain
1:56 AM 53.1 °F 52.0 °F 96% 29.96 in 10.0 mi South 5.8 mph - 0.03 in Rain Light Rain
2:37 AM 53.6 °F 51.8 °F 94% 29.96 in 10.0 mi SSE 5.8 mph - 0.02 in   Overcast
2:56 AM 53.1 °F 52.0 °F 96% 29.96 in 10.0 mi SSE 5.8 mph - 0.02 in   Overcast
3:13 AM 53.6 °F 51.8 °F 94% 29.96 in 7.0 mi South 4.6 mph - 0.00 in Rain Light Rain
3:56 AM 53.1 °F 52.0 °F 96% 29.96 in 10.0 mi SSE 6.9 mph - 0.00 in   Overcast
4:14 AM 53.6 °F 51.8 °F 94% 29.96 in 10.0 mi South 4.6 mph - N/A   Overcast
4:43 AM 53.6 °F 51.8 °F 94% 29.96 in 10.0 mi South 5.8 mph - N/A   Overcast
4:56 AM 54.0 °F 52.0 °F 93% 29.97 in 10.0 mi South 5.8 mph - N/A   Overcast
5:04 AM 53.6 °F 51.8 °F 94% 29.97 in 10.0 mi South 6.9 mph - N/A   Overcast
5:11 AM 53.6 °F 51.8 °F 94% 29.97 in 8.0 mi South 8.1 mph - N/A   Overcast
5:52 AM 53.6 °F 51.8 °F 94% 29.97 in 10.0 mi South 8.1 mph - 0.00 in   Overcast
5:56 AM 53.1 °F 52.0 °F 96% 29.97 in 10.0 mi SSE 6.9 mph - 0.00 in   Overcast
6:33 AM 53.6 °F 51.8 °F 94% 29.99 in 10.0 mi South 6.9 mph - N/A   Mostly Cloudy
6:56 AM 54.0 °F 52.0 °F 93% 29.99 in 10.0 mi South 4.6 mph - N/A   Overcast
7:16 AM 53.6 °F 53.6 °F 100% 29.99 in 10.0 mi South 3.5 mph - N/A   Overcast
7:47 AM 55.4 °F 53.6 °F 94% 30.00 in 10.0 mi South 3.5 mph - N/A   Overcast
7:56 AM 54.0 °F 52.0 °F 93% 30.00 in 10.0 mi South 8.1 mph - N/A   Overcast
8:16 AM 55.4 °F 51.8 °F 88% 30.01 in 10.0 mi South 8.1 mph - N/A   Overcast
8:42 AM 55.4 °F 51.8 °F 88% 30.01 in 10.0 mi South 10.4 mph - 0.00 in Rain Light Rain
8:56 AM 57.0 °F 53.1 °F 87% 30.01 in 10.0 mi SSW 5.8 mph - 0.00 in   Overcast
9:10 AM 57.2 °F 53.6 °F 88% 30.01 in 10.0 mi SSW 8.1 mph - N/A   Overcast
9:27 AM 57.2 °F 51.8 °F 82% 30.01 in 10.0 mi South 8.1 mph - N/A   Overcast
9:48 AM 57.2 °F 51.8 °F 82% 30.01 in 10.0 mi SSW 8.1 mph - N/A   Overcast
9:56 AM 57.9 °F 51.1 °F 78% 30.01 in 10.0 mi Variable 6.9 mph - N/A   Overcast
10:56 AM 59.0 °F 51.1 °F 75% 30.02 in 10.0 mi SSW 9.2 mph - N/A   Overcast
11:56 AM 60.1 °F 51.1 °F 72% 30.02 in 10.0 mi South 15.0 mph - 0.00 in Rain Light Rain
12:56 PM 57.9 °F 52.0 °F 81% 30.04 in 10.0 mi Variable 6.9 mph - 0.00 in   Overcast
1:56 PM 63.0 °F 51.1 °F 65% 30.03 in 10.0 mi West 10.4 mph - N/A   Mostly Cloudy
2:56 PM 61.0 °F 48.9 °F 64% 30.03 in 10.0 mi SW 11.5 mph - N/A   Mostly Cloudy
3:56 PM 63.0 °F 50.0 °F 63% 30.04 in 10.0 mi WSW 12.7 mph - N/A   Mostly Cloudy
4:56 PM 63.0 °F 48.0 °F 58% 30.04 in 10.0 mi WSW 15.0 mph 21.9 mph N/A   Mostly Cloudy
5:56 PM 62.1 °F 48.0 °F 60% 30.04 in 10.0 mi West 15.0 mph - N/A   Mostly Cloudy
6:56 PM 57.9 °F 46.9 °F 67% 30.05 in 10.0 mi WSW 9.2 mph - N/A   Overcast
7:56 PM 57.0 °F 48.0 °F 72% 30.05 in 10.0 mi SW 9.2 mph - N/A   Overcast
8:10 PM 57.2 °F 48.2 °F 72% 30.05 in 10.0 mi SW 8.1 mph - N/A   Overcast
8:30 PM 55.4 °F 48.2 °F 77% 30.04 in 10.0 mi SW 8.1 mph - N/A   Overcast
8:56 PM 55.9 °F 48.0 °F 75% 30.04 in 10.0 mi SW 5.8 mph - N/A   Overcast
9:56 PM 55.0 °F 46.9 °F 74% 30.04 in 10.0 mi South 5.8 mph - N/A   Overcast
10:56 PM 54.0 °F 46.9 °F 77% 30.02 in 10.0 mi South 5.8 mph - N/A   Overcast
11:56 PM 52.0 °F 46.9 °F 83% 30.00 in 10.0 mi South 4.6 mph - N/A   Scattered Clouds